world map with BIIS marked

BIIS - Airport

This information may not be accurate or current and is not valid for navigation or flight planning. No warranty of fitness for any purpose is made or implied.

flag of Iceland

Donate via PayPal

Additional information is available on the NEW Great Circle Mapper

Location
City:  Ísafjörður, Iceland
Near (Alt.):Isafjordur
ICAO / IATA:BIIS / IFJ

Details
Type:Airport (Aerodrome, Airfield)
Latitude:66°03'29"N (66.058056)
Longitude:23°08'07"W (-23.135277)
Elevation:8 ft (2 m)
Runways:1
Longest:4593 × 98 ft (1400 × 30 m)

Time
Timezone:UTC+0 (DST+2)
Local Time:

Weather
METAR:BIIS  271800Z 27006KT 9999 SCT020 SCT040 04/M00 Q1002

Related Locations
Nearby:
Farthest:NZTB: 11810 mi / 19006 km
Terra Nova Bay [Mario Zucchelli Station], AQ

Find:

   beyond  
but within

Other Information
Maps:
Sources:

  


 


Great Circle Mapper   Great Circle Mapper
Great Circle Mapper FAQ   Great Circle Mapper FAQ
  Karl's Home Page
KLS²   KLS² Home
   GC on Facebook
  Flugnet
Airlines of the World   Airlines of the World
Donate via PayPal


Copyright © 2004-2017, Karl L. Swartz. All rights reserved.
All trademarks mentioned herein belong to their respective owners.

Please see credits for attribution and copyright information.

Karl Swartz <karl@kls2.com>
  Powered by FreeBSD
Valid HTML 4.01!
Labeled with ICRA
hCard Microformat
Geo Microformat